#timestamp,LO_Frequency,Hit,StdDev 
1698663615.7,286047000.4,N
1698663635.6,286046998.2,N
1698663655.4,286046998.6,N
1698663675.2,286047001.1,N
1698663695.1,286047000.7,N
1698663696.0,286047000.7,N
1698663715.8,286046998.7,N
1698663735.7,286046998.7,N
1698663755.5,286047001.1,N
1698663775.3,286047001.2,N
1698663795.2,286047000.0,N
1698663815.9,286047002.6,N
1698663835.7,286047002.2,N
1698663855.6,286047002.8,N
1698663875.4,286046999.7,N
1698663895.3,286047002.3,N
1698663915.1,286047002.7,N
1698663916.0,286047002.7,N
1698663935.8,286047002.1,N
1698663955.7,286047001.9,N
1698663975.5,286047002.5,N
1698663995.3,286047002.4,N
1698664015.2,286047002.6,N
1698664035.0,286047002.6,N
1698664035.9,286047002.6,N
1698664055.8,286047000.6,N
1698664075.6,286046999.9,N
1698664095.4,286047002.7,N
1698664115.3,286047001.6,N
1698664135.1,286047001.5,N
1698664155.8,286047002.5,N
1698664175.7,286047000.4,N
1698664195.5,286047002.7,N
1698664215.4,286047002.4,N
1698664235.2,286047002.3,N
1698664255.0,286047002.6,N
1698664255.9,286047002.6,N
1698664275.8,286047002.1,N
1698664295.6,286047002.8,N
1698664315.5,286047002.2,N
1698664335.3,286047000.6,N
1698664355.1,286047000.9,N
1698664375.9,286047001.0,N
1698664395.7,286047001.2,N
1698664415.5,286047001.2,N
1698664435.4,286047000.5,N
1698664455.2,286047000.7,N
1698664475.0,286046998.2,N
1698664476.0,286046998.2,N
1698664495.8,286046998.2,N
1698664515.6,286047000.7,N
1698664535.5,286046998.1,N
1698664555.3,286047002.7,N
1698664575.1,286047002.7,N
1698664595.9,286047001.4,N
1698664615.7,286047001.7,N
1698664635.5,286047001.5,N
1698664655.4,286047003.7,N
1698664675.2,286047001.4,N
1698664695.1,286047004.0,N
1698664696.0,286047004.0,N
1698664715.8,286047001.5,N
1698664735.6,286047001.8,N
1698664755.5,286047001.3,N
1698664775.3,286047002.3,N
1698664795.1,286047002.1,N
1698664815.9,286047002.1,N
1698664835.7,286047001.8,N
1698664855.6,286047002.6,N
1698664875.4,286047001.9,N
1698664895.2,286047001.6,N
1698664915.1,286047002.5,N
1698664916.0,286047002.5,N
1698664935.8,286047001.3,N
1698664955.7,286047001.5,N
1698664975.5,286046999.8,N
1698664995.3,286047002.3,N
1698665015.2,286047000.1,N
1698665035.0,286047002.5,N
1698665035.9,286047002.5,N
1698665055.8,286046999.7,N
1698665075.6,286047000.1,N
1698665095.4,286047000.2,N
1698665115.3,286046999.7,N
1698665135.1,286047002.7,N
1698665155.8,286047004.2,Y
1698665175.7,286047000.5,P
1698665195.5,286047000.3,N
1698665215.4,286047002.6,P
1698665235.2,286047002.3,N
1698665255.0,286046999.8,N
1698665255.9,286046999.8,N
1698665275.8,286047000.1,N
1698665295.6,286047002.4,N
1698665315.4,286047002.7,N
1698665335.3,286047001.9,N
1698665355.1,286047002.2,N
1698665375.9,286047002.0,N
1698665395.7,286047000.5,N
1698665415.5,286047000.5,N
1698665435.4,286046998.4,N
1698665455.2,286046999.9,N
1698665505.1,286047002.2,E
1698665515.9,286047001.1,N
1698665535.7,286046999.1,P
1698665555.6,286046997.5,N
1698665575.4,286046997.7,N
1698665595.2,286046997.3,N
1698665615.1,286046997.1,N
1698665616.0,286046997.1,N
1698665635.8,286046997.7,N
1698665655.7,286046997.0,N
1698665675.5,286046995.0,Y
1698665695.3,286046998.5,P
1698665715.2,286047000.9,P
1698665735.0,286047000.0,N
1698665735.9,286047000.0,N
1698665755.8,286047000.0,N
1698665775.6,286047000.4,N
1698665795.4,286047000.8,N
1698665815.3,286047001.1,N
1698665835.1,286047000.9,N
1698665855.8,286046998.5,N
1698665875.7,286047000.6,N
1698665895.5,286047000.5,N
1698665915.4,286047000.9,N
1698665935.2,286047000.3,N
1698665955.0,286047000.0,N
1698665955.9,286047000.0,N
1698665975.8,286046999.9,N
1698665995.6,286046999.9,N
1698666015.4,286047000.8,N
1698666035.3,286047000.6,N
1698666055.1,286047000.7,N
1698666075.9,286047000.0,N
1698666095.7,286047002.8,Y
1698666115.5,286047000.1,P
1698666135.4,286047001.2,P
1698666155.2,286046998.2,P
1698666175.0,286046999.7,N
1698666175.9,286046999.7,N
1698666195.8,286046999.7,N
1698666215.6,286047002.7,Y
1698666235.5,286047002.8,P
1698666255.3,286046999.9,N
1698666275.1,286047001.0,N
1698666295.9,286047001.0,N
1698666315.7,286046998.8,N
1698666335.5,286047000.8,N
1698666355.4,286047000.3,N
1698666375.2,286047001.1,N
1698666395.1,286047000.6,N
1698666396.0,286047000.6,N
1698666415.8,286047001.1,N
1698666435.6,286046998.6,N
1698666455.5,286046998.4,N
1698666475.3,286047001.1,N
1698666495.2,286047000.6,N
1698666515.9,286047001.1,N
1698666535.7,286046998.8,N
1698666555.6,286047001.0,N
1698666575.4,286047000.4,N
1698666595.3,286047000.6,N
1698666615.1,286046999.3,N
1698666616.0,286046999.3,N
1698666635.8,286046996.6,Y
1698666655.7,286046997.6,P
1698666675.5,286046996.7,N
1698666695.4,286046995.1,P
1698666715.2,286046995.3,N
1698666735.0,286046998.0,N
1698666735.9,286046998.0,N
1698666755.8,286046996.4,N
1698666775.6,286046993.7,Y
1698666795.5,286046995.0,P
1698666815.3,286046995.7,P
1698666835.1,286046995.5,P
1698666855.9,286046995.2,Y
1698666875.7,286047002.2,P
1698666895.6,286047002.6,N
1698666915.4,286047000.3,N
1698666935.2,286047000.1,N
1698666955.1,286047001.6,N
1698666956.0,286047001.6,N
1698666975.8,286047002.2,N
1698666995.6,286047002.2,N
1698667015.5,286047011.9,Y
1698667035.3,286046999.0,P
1698667055.2,286046996.6,P
1698667075.9,286046996.7,N
1698667095.7,286046996.6,N
1698667115.6,286046999.6,N
1698667135.4,286046999.5,N
1698667155.3,286046998.9,N
1698667175.1,286046999.5,N
1698667176.0,286046999.5,N
1698667195.8,286046998.9,N
